Weather History for KSUS - November, 2013

Change the Weather History Date:

Saturday, November 2, 2013

  Actual Average (KSTL) Record (KSTL)
Temperature  
Mean Temperature 44 °F 53 °F  
Max Temperature 55 °F 62 °F 80 °F (1990)
Min Temperature 34 °F 44 °F 18 °F (1951)
Degree Days  
Heating Degree Days 20 12  
Month to date heating degree days 24  
Since 1 July heating degree days 300  
Cooling Degree Days 0 0  
Month to date cooling degree days 0  
Year to date cooling degree days 1642  
Moisture  
Dew Point 37 °F    
Average Humidity 73    
Maximum Humidity 96    
Minimum Humidity 45    
Precipitation  
Precipitation 0.00 in 0.12 in 2.45 in (1946)
Month to date precipitation 0.24  
Year to date precipitation 34.45  
Snow  
Snow 0.00 in 0.00 in T in (1899)
Month to date snowfall 0.0  
Since 1 July snowfall 0.0  
Since 1 September snowfall 0.0  
Snow Depth -    
Sea Level Pressure  
Sea Level Pressure 30.05 in    
Wind  
Wind Speed 8 mph (WNW)    
Max Wind Speed 15 mph    
Max Gust Speed 23 mph    
Visibility 10 miles    
Events      
T = Trace of Precipitation, MM = Missing Value Source: NWS Daily Summary

Daily Weather History Graph

Daily Weather History Graph

Search for Another Location

Airport or City:

Trip Planner

Search our weather history database for the weather conditions in past years. The results will help you decide how hot, cold, wet, or windy it might be!

Date:

Astronomy

Nov. 02, 2013 Rise Set
Actual Time 7:30 AM CDT 6:01 PM CDT
Civil Twilight 7:03 AM CDT 6:28 PM CDT
Nautical Twilight 6:31 AM CDT 7:00 PM CDT
Astronomical Twilight 6:00 AM CDT 7:31 PM CDT
Moon 6:28 AM CDT (11/2) 5:32 PM CDT (11/2)
Length of Visible Light 11h 25m
Length of Day
10h 30m
Waning Crescent, 1% of the Moon is Illuminated
Nov 2
Waning Crescent
Nov 3
New
Nov 9
First Quarter
Nov 17
Full
Nov 25
Last Quarter

Hourly Weather History & Observations

Time (CDT) Temp. Windchill Dew Point Humidity Pressure Visibility Wind Dir Wind Speed Gust Speed Precip Events Conditions
12:54 AM 45.0 °F 40.6 °F 41.0 °F 86% 29.86 in 10.0 mi West 8.1 mph - N/A   Clear
1:54 AM 45.0 °F 41.2 °F 39.9 °F 82% 29.88 in 10.0 mi West 6.9 mph - N/A   Clear
2:54 AM 44.1 °F 41.5 °F 39.0 °F 82% 29.88 in 10.0 mi WSW 4.6 mph - N/A   Mostly Cloudy
3:54 AM 46.0 °F 42.5 °F 39.9 °F 79% 29.88 in 10.0 mi WSW 6.9 mph - N/A   Overcast
4:54 AM 46.0 °F 43.1 °F 41.0 °F 83% 29.89 in 10.0 mi West 5.8 mph - N/A   Overcast
5:54 AM 46.0 °F 41.0 °F 39.9 °F 79% 29.93 in 10.0 mi WNW 10.4 mph - N/A   Clear
6:54 AM 45.0 °F 41.2 °F 39.0 °F 80% 29.96 in 10.0 mi West 6.9 mph - N/A   Scattered Clouds
7:54 AM 43.0 °F 39.5 °F 39.0 °F 86% 29.99 in 10.0 mi West 5.8 mph - N/A   Partly Cloudy
8:54 AM 46.0 °F 41.0 °F 39.9 °F 79% 30.02 in 10.0 mi NW 10.4 mph 18.4 mph N/A   Mostly Cloudy
9:54 AM 46.9 °F - 39.9 °F 77% 30.05 in 10.0 mi WNW 15.0 mph 21.9 mph N/A   Overcast
10:02 AM 48.2 °F - 39.2 °F 71% 30.04 in 10.0 mi WNW 15.0 mph - N/A   Overcast
10:54 AM 48.9 °F - 39.0 °F 69% 30.06 in 10.0 mi NNW 12.7 mph 23.0 mph N/A   Mostly Cloudy
11:54 AM 52.0 °F - 39.0 °F 61% 30.08 in 10.0 mi WNW 12.7 mph - N/A   Scattered Clouds
12:54 PM 55.0 °F - 35.1 °F 47% 30.07 in 10.0 mi NNW 13.8 mph 20.7 mph N/A   Scattered Clouds
1:54 PM 54.0 °F - 33.1 °F 45% 30.08 in 10.0 mi NNW 12.7 mph 21.9 mph N/A   Mostly Cloudy
2:54 PM 53.1 °F - 33.1 °F 47% 30.10 in 10.0 mi NNW 12.7 mph 21.9 mph N/A   Overcast
3:54 PM 53.1 °F - 34.0 °F 48% 30.11 in 10.0 mi NNW 10.4 mph - N/A   Overcast
4:54 PM 53.1 °F - 35.1 °F 50% 30.12 in 10.0 mi NW 10.4 mph - N/A   Mostly Cloudy
5:54 PM 50.0 °F - 35.1 °F 57% 30.14 in 10.0 mi WNW 5.8 mph - N/A   Scattered Clouds
6:54 PM 41.0 °F - 36.0 °F 82% 30.16 in 10.0 mi Calm Calm - N/A   Scattered Clouds
7:54 PM 41.0 °F - 36.0 °F 82% 30.18 in 10.0 mi Calm Calm - N/A   Partly Cloudy
8:54 PM 37.9 °F - 35.1 °F 89% 30.19 in 10.0 mi Calm Calm - N/A   Clear
9:54 PM 37.0 °F - 34.0 °F 89% 30.21 in 10.0 mi Calm Calm - N/A   Clear
10:54 PM 34.0 °F 31.0 °F 33.1 °F 96% 30.21 in 10.0 mi WSW 3.5 mph - N/A   Clear
11:54 PM 35.1 °F - 32.0 °F 89% 30.20 in 10.0 mi Calm Calm - N/A   Clear